Location: Heidgraben
(53.7081°N, 9.6576°E)
Time: 00:09:40
(UTC+00:00)

Cosmos 2333 Rocket - Pass Details

Date: 02 November 2020
Orbit: 841 x 861 km, 70.8° (Epoch: 28 November)

Event Time Altitude Azimuth Distance (km) Brightness Sun altitude
Exits shadow 04:51:30 - 328° (NNW) 3,010 4.7 -13.9°
Reaches altitude 10° 04:52:55 10° 330° (NNW) 2,480 4.3 -13.7°
Maximum altitude 04:58:35 67° 53° (NE) 913 2.5 -12.9°
Drops below altitude 10° 05:04:12 10° 137° (SE) 2,457 5.4 -12.1°
Sets 05:06:39 0° 140° (SE) 3,388 6.2 -11.7°
